,,PressureMeas_1m,,PRMeasQMR101_1,,RHStat155_1m_1,,SRMeasQMS101R_1m,,TAStat155_1m_1,,GenWind_1,,GenWind_1,
2017-08-25, 07:00:06,VALID,917.223,VALID,0.0,VALID,97.455,VALID,86.359,VALID,18.433,VALID,143.0,VALID,2.087,
2017-08-25, 07:01:06,VALID,917.218,VALID,0.0,VALID,97.368,VALID,67.797,VALID,18.447,VALID,142.0,VALID,1.576,
2017-08-25, 07:02:06,VALID,917.226,VALID,0.0,VALID,97.282,VALID,74.781,VALID,18.44,VALID,144.0,VALID,2.21,
2017-08-25, 07:03:06,VALID,917.245,VALID,0.0,VALID,97.248,VALID,94.182,VALID,18.451,VALID,147.0,VALID,1.561,
2017-08-25, 07:04:06,VALID,917.243,VALID,0.0,VALID,97.26,VALID,103.076,VALID,18.489,VALID,144.0,VALID,1.718,
2017-08-25, 07:05:06,VALID,917.252,VALID,0.0,VALID,97.254,VALID,113.415,VALID,18.523,VALID,140.0,VALID,1.97,
2017-08-25, 07:06:06,VALID,917.262,VALID,0.0,VALID,97.07,VALID,131.841,VALID,18.552,VALID,141.0,VALID,1.836,
2017-08-25, 07:07:06,VALID,917.277,VALID,0.0,VALID,97.009,VALID,133.072,VALID,18.612,VALID,135.0,VALID,1.504,
2017-08-25, 07:08:06,VALID,917.279,VALID,0.0,VALID,96.761,VALID,143.085,VALID,18.674,VALID,144.0,VALID,1.38,
2017-08-25, 07:09:06,VALID,917.286,VALID,0.0,VALID,96.588,VALID,151.463,VALID,18.762,VALID,137.0,VALID,1.339,
2017-08-25, 07:10:06,VALID,917.276,VALID,0.0,VALID,95.998,VALID,160.72,VALID,18.82,VALID,133.0,VALID,1.471,
2017-08-25, 07:11:06,VALID,917.269,VALID,0.0,VALID,95.623,VALID,163.903,VALID,18.881,VALID,128.0,VALID,1.282,
2017-08-25, 07:12:06,VALID,917.26,VALID,0.0,VALID,95.848,VALID,161.096,VALID,18.968,VALID,108.0,VALID,1.024,
2017-08-25, 07:13:06,VALID,917.258,VALID,0.0,VALID,95.452,VALID,159.912,VALID,18.995,VALID,120.0,VALID,1.199,
2017-08-25, 07:14:06,VALID,917.261,VALID,0.0,VALID,95.33,VALID,169.4,VALID,19.056,VALID,112.0,VALID,0.898,
2017-08-25, 07:15:06,VALID,917.255,VALID,0.0,VALID,95.249,VALID,182.098,VALID,19.16,VALID,121.0,VALID,0.893,
2017-08-25, 07:16:06,VALID,917.261,VALID,0.0,VALID,94.843,VALID,188.592,VALID,19.269,VALID,123.0,VALID,0.971,
2017-08-25, 07:17:06,VALID,917.261,VALID,0.0,VALID,93.878,VALID,192.588,VALID,19.375,VALID,121.0,VALID,1.242,
2017-08-25, 07:18:06,VALID,917.26,VALID,0.0,VALID,93.019,VALID,196.142,VALID,19.436,VALID,128.0,VALID,1.284,
2017-08-25, 07:19:06,VALID,917.272,VALID,0.0,VALID,92.5,VALID,199.652,VALID,19.439,VALID,135.0,VALID,1.613,
2017-08-25, 07:20:06,VALID,917.278,VALID,0.0,VALID,92.58,VALID,204.112,VALID,19.41,VALID,139.0,VALID,1.405,
2017-08-25, 07:21:06,VALID,917.278,VALID,0.0,VALID,92.89,VALID,209.32,VALID,19.416,VALID,138.0,VALID,1.516,
2017-08-25, 07:22:06,VALID,917.29,VALID,0.0,VALID,92.572,VALID,213.988,VALID,19.424,VALID,136.0,VALID,1.635,
2017-08-25, 07:23:06,VALID,917.291,VALID,0.0,VALID,92.525,VALID,217.825,VALID,19.452,VALID,135.0,VALID,1.416,
2017-08-25, 07:24:06,VALID,917.302,VALID,0.0,VALID,93.366,VALID,209.557,VALID,19.561,VALID,135.0,VALID,1.334,
2017-08-25, 07:25:06,VALID,917.294,VALID,0.0,VALID,92.807,VALID,208.581,VALID,19.593,VALID,147.0,VALID,1.568,
2017-08-25, 07:26:06,VALID,917.309,VALID,0.0,VALID,92.37,VALID,213.531,VALID,19.542,VALID,146.0,VALID,1.882,
2017-08-25, 07:27:06,VALID,917.31,VALID,0.0,VALID,92.0,VALID,200.134,VALID,19.511,VALID,156.0,VALID,1.761,
2017-08-25, 07:28:06,VALID,917.299,VALID,0.0,VALID,91.874,VALID,156.617,VALID,19.52,VALID,152.0,VALID,1.949,
2017-08-25, 07:29:06,VALID,917.304,VALID,0.0,VALID,91.624,VALID,200.118,VALID,19.489,VALID,148.0,VALID,1.88,
2017-08-25, 07:30:06,VALID,917.311,VALID,0.0,VALID,92.088,VALID,234.143,VALID,19.5,VALID,143.0,VALID,1.723,
2017-08-25, 07:31:06,VALID,917.316,VALID,0.0,VALID,92.132,VALID,244.224,VALID,19.564,VALID,146.0,VALID,1.747,
2017-08-25, 07:32:06,VALID,917.326,VALID,0.0,VALID,91.151,VALID,248.473,VALID,19.601,VALID,145.0,VALID,1.715,
2017-08-25, 07:33:06,VALID,917.322,VALID,0.0,VALID,91.511,VALID,254.781,VALID,19.662,VALID,148.0,VALID,1.727,
2017-08-25, 07:34:06,VALID,917.346,VALID,0.0,VALID,90.702,VALID,257.52,VALID,19.652,VALID,142.0,VALID,1.592,
2017-08-25, 07:35:06,VALID,917.344,VALID,0.0,VALID,91.305,VALID,250.84,VALID,19.665,VALID,144.0,VALID,1.261,
2017-08-25, 07:36:06,VALID,917.362,VALID,0.0,VALID,91.634,VALID,260.989,VALID,19.783,VALID,125.0,VALID,1.302,
2017-08-25, 07:37:06,VALID,917.367,VALID,0.0,VALID,91.61,VALID,251.188,VALID,19.929,VALID,105.0,VALID,1.718,
2017-08-25, 07:38:06,VALID,917.355,VALID,0.0,VALID,89.167,VALID,237.528,VALID,19.942,VALID,97.0,VALID,1.583,
2017-08-25, 07:39:06,VALID,917.355,VALID,0.0,VALID,89.86,VALID,268.772,VALID,19.963,VALID,95.0,VALID,1.487,
2017-08-25, 07:40:06,VALID,917.352,VALID,0.0,VALID,90.797,VALID,275.362,VALID,20.09,VALID,133.0,VALID,1.268,
2017-08-25, 07:41:06,VALID,917.359,VALID,0.0,VALID,88.705,VALID,277.474,VALID,20.169,VALID,129.0,VALID,1.601,
2017-08-25, 07:42:06,VALID,917.368,VALID,0.0,VALID,88.753,VALID,280.671,VALID,20.231,VALID,144.0,VALID,1.009,
2017-08-25, 07:43:06,VALID,917.383,VALID,0.0,VALID,88.247,VALID,295.673,VALID,20.264,VALID,152.0,VALID,1.386,
2017-08-25, 07:44:06,VALID,917.401,VALID,0.0,VALID,87.912,VALID,299.284,VALID,20.235,VALID,149.0,VALID,1.183,
2017-08-25, 07:45:06,VALID,917.427,VALID,0.0,VALID,89.149,VALID,302.513,VALID,20.275,VALID,154.0,VALID,1.023,
2017-08-25, 07:46:06,VALID,917.46,VALID,0.0,VALID,88.588,VALID,304.515,VALID,20.328,VALID,145.0,VALID,1.038,
2017-08-25, 07:47:06,VALID,917.474,VALID,0.0,VALID,88.276,VALID,303.648,VALID,20.36,VALID,150.0,VALID,1.181,
2017-08-25, 07:48:06,VALID,917.474,VALID,0.0,VALID,87.245,VALID,306.501,VALID,20.351,VALID,141.0,VALID,1.072,
2017-08-25, 07:49:06,VALID,917.492,VALID,0.0,VALID,87.783,VALID,300.99,VALID,20.371,VALID,154.0,VALID,1.484,
2017-08-25, 07:50:06,VALID,917.501,VALID,0.0,VALID,87.276,VALID,310.092,VALID,20.384,VALID,155.0,VALID,1.326,
2017-08-25, 07:51:06,VALID,917.494,VALID,0.0,VALID,86.984,VALID,316.992,VALID,20.431,VALID,141.0,VALID,1.381,
2017-08-25, 07:52:06,VALID,917.49,VALID,0.0,VALID,86.707,VALID,318.607,VALID,20.414,VALID,145.0,VALID,1.758,
2017-08-25, 07:53:06,VALID,917.491,VALID,0.0,VALID,87.116,VALID,317.283,VALID,20.393,VALID,150.0,VALID,1.682,
2017-08-25, 07:54:06,VALID,917.483,VALID,0.0,VALID,87.114,VALID,318.064,VALID,20.405,VALID,141.0,VALID,1.281,
2017-08-25, 07:55:06,VALID,917.467,VALID,0.0,VALID,87.044,VALID,327.01,VALID,20.473,VALID,143.0,VALID,1.285,
2017-08-25, 07:56:06,VALID,917.471,VALID,0.0,VALID,87.501,VALID,314.958,VALID,20.569,VALID,151.0,VALID,1.59,
2017-08-25, 07:57:06,VALID,917.469,VALID,0.0,VALID,86.92,VALID,323.405,VALID,20.622,VALID,153.0,VALID,1.45,
2017-08-25, 07:58:06,VALID,917.48,VALID,0.0,VALID,86.069,VALID,335.897,VALID,20.624,VALID,146.0,VALID,1.765,
2017-08-25, 07:59:06,VALID,917.491,VALID,0.0,VALID,87.109,VALID,304.983,VALID,20.622,VALID,151.0,VALID,1.58,
2017-08-25, 08:00:06,VALID,917.505,VALID,0.0,VALID,86.217,VALID,312.487,VALID,20.667,VALID,155.0,VALID,1.628,
2017-08-25, 08:01:06,VALID,917.513,VALID,0.0,VALID,85.892,VALID,328.336,VALID,20.706,VALID,150.0,VALID,1.926,
2017-08-25, 08:02:06,VALID,917.53,VALID,0.0,VALID,85.937,VALID,344.663,VALID,20.732,VALID,149.0,VALID,1.661,
2017-08-25, 08:03:06,VALID,917.546,VALID,0.0,VALID,85.887,VALID,368.941,VALID,20.754,VALID,149.0,VALID,1.657,
2017-08-25, 08:04:06,VALID,917.539,VALID,0.0,VALID,85.383,VALID,375.296,VALID,20.793,VALID,151.0,VALID,1.739,
2017-08-25, 08:05:06,VALID,917.541,VALID,0.0,VALID,85.748,VALID,354.926,VALID,20.853,VALID,156.0,VALID,1.716,
2017-08-25, 08:06:06,VALID,917.539,VALID,0.0,VALID,85.867,VALID,301.22,VALID,20.935,VALID,149.0,VALID,1.348,
2017-08-25, 08:07:06,VALID,917.518,VALID,0.0,VALID,85.318,VALID,224.456,VALID,21.004,VALID,145.0,VALID,1.26,
2017-08-25, 08:08:06,VALID,917.504,VALID,0.0,VALID,86.11,VALID,285.834,VALID,21.111,VALID,141.0,VALID,1.05,
2017-08-25, 08:09:06,VALID,917.501,VALID,0.0,VALID,84.668,VALID,327.476,VALID,21.187,VALID,140.0,VALID,1.344,
2017-08-25, 08:10:06,VALID,917.502,VALID,0.0,VALID,83.843,VALID,393.048,VALID,21.21,VALID,154.0,VALID,0.824,
2017-08-25, 08:11:06,VALID,917.534,VALID,0.0,VALID,83.99,VALID,410.835,VALID,21.351,VALID,162.0,VALID,0.623,
2017-08-25, 08:12:06,VALID,917.551,VALID,0.0,VALID,83.701,VALID,422.402,VALID,21.518,VALID,167.0,VALID,0.332,
2017-08-25, 08:13:06,VALID,917.581,VALID,0.0,VALID,83.902,VALID,426.76,VALID,21.742,VALID,125.0,VALID,0.179,
2017-08-25, 08:14:06,VALID,917.595,VALID,0.0,VALID,84.696,VALID,429.825,VALID,22.1,VALID,51.0,VALID,0.426,
2017-08-25, 08:15:06,VALID,917.611,VALID,0.0,VALID,80.966,VALID,431.527,VALID,22.349,VALID,83.0,VALID,0.755,
2017-08-25, 08:16:06,VALID,917.618,VALID,0.0,VALID,81.075,VALID,432.109,VALID,22.377,VALID,57.0,VALID,0.739,
2017-08-25, 08:17:06,VALID,917.618,VALID,0.0,VALID,81.722,VALID,435.986,VALID,22.521,VALID,66.0,VALID,1.116,
2017-08-25, 08:18:06,VALID,917.636,VALID,0.0,VALID,77.336,VALID,432.176,VALID,22.396,VALID,83.0,VALID,0.889,
2017-08-25, 08:19:06,VALID,917.647,VALID,0.0,VALID,78.513,VALID,432.559,VALID,22.263,VALID,124.0,VALID,0.814,
2017-08-25, 08:20:06,VALID,917.649,VALID,0.0,VALID,79.226,VALID,437.155,VALID,22.279,VALID,114.0,VALID,0.83,
2017-08-25, 08:21:06,VALID,917.641,VALID,0.0,VALID,79.004,VALID,447.266,VALID,22.31,VALID,85.0,VALID,1.133,
2017-08-25, 08:22:06,VALID,917.637,VALID,0.0,VALID,79.754,VALID,451.545,VALID,22.293,VALID,77.0,VALID,0.889,
2017-08-25, 08:23:06,VALID,917.622,VALID,0.0,VALID,78.458,VALID,447.53,VALID,22.383,VALID,95.0,VALID,0.639,
2017-08-25, 08:24:06,VALID,917.608,VALID,0.0,VALID,77.882,VALID,451.767,VALID,22.446,VALID,73.0,VALID,0.585,
2017-08-25, 08:25:06,VALID,917.583,VALID,0.0,VALID,77.47,VALID,454.338,VALID,22.607,VALID,72.0,VALID,1.234,
2017-08-25, 08:26:06,VALID,917.581,VALID,0.0,VALID,78.795,VALID,459.496,VALID,22.593,VALID,77.0,VALID,1.249,
2017-08-25, 08:27:06,VALID,917.592,VALID,0.0,VALID,76.936,VALID,465.987,VALID,22.442,VALID,74.0,VALID,1.307,
2017-08-25, 08:28:06,VALID,917.619,VALID,0.0,VALID,78.467,VALID,471.984,VALID,22.316,VALID,103.0,VALID,1.01,
2017-08-25, 08:29:06,VALID,917.649,VALID,0.0,VALID,79.179,VALID,467.188,VALID,22.33,VALID,87.0,VALID,0.818,
2017-08-25, 08:30:06,VALID,917.674,VALID,0.0,VALID,78.836,VALID,475.772,VALID,22.485,VALID,100.0,VALID,1.013,
2017-08-25, 08:31:06,VALID,917.703,VALID,0.0,VALID,78.885,VALID,482.548,VALID,22.472,VALID,99.0,VALID,0.93,
2017-08-25, 08:32:06,VALID,917.711,VALID,0.0,VALID,80.01,VALID,483.882,VALID,22.649,VALID,99.0,VALID,0.986,
2017-08-25, 08:33:06,VALID,917.723,VALID,0.0,VALID,79.069,VALID,488.558,VALID,22.799,VALID,115.0,VALID,0.746,
2017-08-25, 08:34:06,VALID,917.735,VALID,0.0,VALID,78.96,VALID,492.002,VALID,22.926,VALID,86.0,VALID,1.281,
2017-08-25, 08:35:06,VALID,917.75,VALID,0.0,VALID,77.935,VALID,494.622,VALID,22.712,VALID,93.0,VALID,1.125,
2017-08-25, 08:36:06,VALID,917.761,VALID,0.0,VALID,78.58,VALID,495.72,VALID,22.612,VALID,100.0,VALID,0.816,
2017-08-25, 08:37:06,VALID,917.774,VALID,0.0,VALID,78.431,VALID,463.263,VALID,22.676,VALID,107.0,VALID,1.075,
2017-08-25, 08:38:06,VALID,917.779,VALID,0.0,VALID,78.563,VALID,409.785,VALID,22.799,VALID,87.0,VALID,0.85,
2017-08-25, 08:39:06,VALID,917.787,VALID,0.0,VALID,77.703,VALID,447.059,VALID,22.98,VALID,73.0,VALID,1.245,
2017-08-25, 08:40:06,VALID,917.793,VALID,0.0,VALID,76.643,VALID,502.612,VALID,22.965,VALID,69.0,VALID,1.13,
2017-08-25, 08:41:06,VALID,917.788,VALID,0.0,VALID,77.169,VALID,513.664,VALID,22.983,VALID,58.0,VALID,0.775,
2017-08-25, 08:42:06,VALID,917.78,VALID,0.0,VALID,76.577,VALID,516.949,VALID,23.137,VALID,22.0,VALID,0.625,
2017-08-25, 08:43:06,VALID,917.781,VALID,0.0,VALID,76.364,VALID,507.856,VALID,23.423,VALID,54.0,VALID,0.658,
2017-08-25, 08:44:06,VALID,917.787,VALID,0.0,VALID,75.737,VALID,480.66,VALID,23.516,VALID,112.0,VALID,0.677,
2017-08-25, 08:45:06,VALID,917.786,VALID,0.0,VALID,77.002,VALID,480.673,VALID,23.524,VALID,127.0,VALID,0.612,
2017-08-25, 08:46:06,VALID,917.792,VALID,0.0,VALID,77.813,VALID,478.497,VALID,23.579,VALID,130.0,VALID,0.673,
2017-08-25, 08:47:06,VALID,917.8,VALID,0.0,VALID,76.461,VALID,491.351,VALID,23.599,VALID,125.0,VALID,0.578,
2017-08-25, 08:48:06,VALID,917.791,VALID,0.0,VALID,76.827,VALID,500.127,VALID,23.556,VALID,85.0,VALID,0.622,
2017-08-25, 08:49:06,VALID,917.791,VALID,0.0,VALID,76.519,VALID,510.979,VALID,23.604,VALID,137.0,VALID,0.877,
2017-08-25, 08:50:06,VALID,917.78,VALID,0.0,VALID,77.348,VALID,510.158,VALID,23.608,VALID,161.0,VALID,0.702,
2017-08-25, 08:51:06,VALID,917.783,VALID,0.0,VALID,76.278,VALID,526.23,VALID,23.668,VALID,111.0,VALID,0.826,
2017-08-25, 08:52:06,VALID,917.783,VALID,0.0,VALID,77.094,VALID,540.137,VALID,23.685,VALID,165.0,VALID,1.073,
2017-08-25, 08:53:06,VALID,917.795,VALID,0.0,VALID,77.047,VALID,552.673,VALID,23.723,VALID,159.0,VALID,0.677,
2017-08-25, 08:54:06,VALID,917.809,VALID,0.0,VALID,76.002,VALID,560.372,VALID,23.769,VALID,182.0,VALID,0.767,
2017-08-25, 08:55:06,VALID,917.822,VALID,0.0,VALID,76.038,VALID,563.993,VALID,23.804,VALID,161.0,VALID,0.702,
2017-08-25, 08:56:06,VALID,917.834,VALID,0.0,VALID,76.185,VALID,566.61,VALID,23.89,VALID,150.0,VALID,1.124,
2017-08-25, 08:57:06,VALID,917.843,VALID,0.0,VALID,75.756,VALID,566.658,VALID,23.778,VALID,146.0,VALID,1.68,
2017-08-25, 08:58:06,VALID,917.844,VALID,0.0,VALID,76.585,VALID,567.877,VALID,23.527,VALID,168.0,VALID,1.031,
2017-08-25, 08:59:06,VALID,917.845,VALID,0.0,VALID,77.166,VALID,570.163,VALID,23.65,VALID,123.0,VALID,1.218,
2017-08-25, 09:00:06,VALID,917.829,VALID,0.0,VALID,76.97,VALID,569.993,VALID,23.745,VALID,145.0,VALID,0.782,
2017-08-25, 09:01:06,VALID,917.81,VALID,0.0,VALID,76.312,VALID,573.026,VALID,23.882,VALID,169.0,VALID,0.893,
2017-08-25, 09:02:06,VALID,917.802,VALID,0.0,VALID,74.13,VALID,579.05,VALID,23.842,VALID,148.0,VALID,1.282,
2017-08-25, 09:03:06,VALID,917.778,VALID,0.0,VALID,75.689,VALID,573.383,VALID,23.756,VALID,159.0,VALID,1.107,
2017-08-25, 09:04:06,VALID,917.762,VALID,0.0,VALID,74.847,VALID,582.14,VALID,23.866,VALID,153.0,VALID,0.665,
2017-08-25, 09:05:06,VALID,917.728,VALID,0.0,VALID,74.227,VALID,589.797,VALID,24.033,VALID,160.0,VALID,1.005,
2017-08-25, 09:06:06,VALID,917.725,VALID,0.0,VALID,74.649,VALID,599.244,VALID,24.104,VALID,152.0,VALID,0.648,
2017-08-25, 09:07:06,VALID,917.702,VALID,0.0,VALID,73.923,VALID,598.581,VALID,24.3,VALID,169.0,VALID,0.552,
2017-08-25, 09:08:06,VALID,917.689,VALID,0.0,VALID,71.904,VALID,607.804,VALID,24.467,VALID,176.0,VALID,0.63,
2017-08-25, 09:09:06,VALID,917.688,VALID,0.0,VALID,70.76,VALID,608.438,VALID,24.647,VALID,194.0,VALID,0.832,
2017-08-25, 09:10:06,VALID,917.7,VALID,0.0,VALID,70.984,VALID,608.168,VALID,24.762,VALID,179.0,VALID,0.768,
2017-08-25, 09:11:06,VALID,917.713,VALID,0.0,VALID,69.749,VALID,613.169,VALID,24.82,VALID,188.0,VALID,0.834,
2017-08-25, 09:12:06,VALID,917.737,VALID,0.0,VALID,69.357,VALID,613.927,VALID,24.918,VALID,176.0,VALID,0.645,
2017-08-25, 09:13:06,VALID,917.753,VALID,0.0,VALID,69.813,VALID,613.836,VALID,24.825,VALID,145.0,VALID,0.753,
2017-08-25, 09:14:06,VALID,917.761,VALID,0.0,VALID,69.55,VALID,620.868,VALID,24.931,VALID,191.0,VALID,0.369,
2017-08-25, 09:15:06,VALID,917.761,VALID,0.0,VALID,66.391,VALID,635.323,VALID,25.077,VALID,188.0,VALID,0.453,
2017-08-25, 09:16:06,VALID,917.761,VALID,0.0,VALID,66.772,VALID,640.557,VALID,25.268,VALID,80.0,VALID,0.053,
2017-08-25, 09:17:06,VALID,917.745,VALID,0.0,VALID,65.686,VALID,645.336,VALID,25.523,VALID,221.0,VALID,0.009,
2017-08-25, 09:18:06,VALID,917.738,VALID,0.0,VALID,64.77,VALID,646.364,VALID,25.767,VALID,170.0,VALID,0.684,
2017-08-25, 09:19:06,VALID,917.73,VALID,0.0,VALID,63.775,VALID,649.414,VALID,25.581,VALID,187.0,VALID,0.479,
2017-08-25, 09:20:06,VALID,917.728,VALID,0.0,VALID,64.511,VALID,653.199,VALID,25.657,VALID,199.0,VALID,0.101,
2017-08-25, 09:21:06,VALID,917.714,VALID,0.0,VALID,64.191,VALID,646.696,VALID,25.665,VALID,266.0,VALID,0.201,
2017-08-25, 09:22:06,VALID,917.7,VALID,0.0,VALID,64.48,VALID,655.125,VALID,25.513,VALID,282.0,VALID,0.213,
2017-08-25, 09:23:06,VALID,917.698,VALID,0.0,VALID,62.695,VALID,663.517,VALID,25.398,VALID,241.0,VALID,0.128,
2017-08-25, 09:24:06,VALID,917.675,VALID,0.0,VALID,63.503,VALID,664.885,VALID,25.414,VALID,224.0,VALID,0.278,
2017-08-25, 09:25:06,VALID,917.675,VALID,0.0,VALID,61.583,VALID,659.251,VALID,25.547,VALID,215.0,VALID,0.42,
2017-08-25, 09:26:06,VALID,917.675,VALID,0.0,VALID,61.975,VALID,635.526,VALID,25.721,VALID,205.0,VALID,0.523,
2017-08-25, 09:27:06,VALID,917.672,VALID,0.0,VALID,59.916,VALID,623.933,VALID,25.837,VALID,195.0,VALID,0.382,
2017-08-25, 09:28:06,VALID,917.679,VALID,0.0,VALID,59.784,VALID,622.61,VALID,25.822,VALID,237.0,VALID,0.203,
2017-08-25, 09:29:06,VALID,917.685,VALID,0.0,VALID,59.371,VALID,623.122,VALID,25.852,VALID,182.0,VALID,0.165,
2017-08-25, 09:30:06,VALID,917.68,VALID,0.0,VALID,58.673,VALID,641.454,VALID,26.006,VALID,157.0,VALID,0.156,
2017-08-25, 09:31:06,VALID,917.665,VALID,0.0,VALID,58.172,VALID,647.654,VALID,26.243,VALID,218.0,VALID,0.096,
2017-08-25, 09:32:06,VALID,917.669,VALID,0.0,VALID,58.715,VALID,654.499,VALID,26.334,VALID,179.0,VALID,0.005,
2017-08-25, 09:33:06,VALID,917.666,VALID,0.0,VALID,59.131,VALID,657.589,VALID,26.41,VALID,163.0,VALID,0.491,
2017-08-25, 09:34:06,VALID,917.653,VALID,0.0,VALID,58.054,VALID,651.244,VALID,26.289,VALID,95.0,VALID,0.227,
2017-08-25, 09:35:06,VALID,917.652,VALID,0.0,VALID,59.723,VALID,661.732,VALID,26.374,VALID,72.0,VALID,0.361,
2017-08-25, 09:36:06,VALID,917.647,VALID,0.0,VALID,58.16,VALID,655.646,VALID,26.508,VALID,217.0,VALID,0.103,
2017-08-25, 09:37:06,VALID,917.626,VALID,0.0,VALID,59.1,VALID,642.093,VALID,26.52,VALID,246.0,VALID,0.01,
2017-08-25, 09:38:06,VALID,917.624,VALID,0.0,VALID,60.133,VALID,618.778,VALID,26.59,VALID,240.0,VALID,0.591,
2017-08-25, 09:39:06,VALID,917.621,VALID,0.0,VALID,62.341,VALID,589.462,VALID,26.574,VALID,195.0,VALID,0.787,
2017-08-25, 09:40:07,VALID,917.608,VALID,0.0,VALID,60.64,VALID,558.889,VALID,26.588,VALID,203.0,VALID,0.889,
2017-08-25, 09:41:07,VALID,917.592,VALID,0.0,VALID,62.033,VALID,530.098,VALID,26.436,VALID,177.0,VALID,0.766,
2017-08-25, 09:42:07,VALID,917.589,VALID,0.0,VALID,61.904,VALID,545.541,VALID,26.287,VALID,221.0,VALID,1.236,
2017-08-25, 09:43:07,VALID,917.592,VALID,0.0,VALID,58.844,VALID,560.059,VALID,26.044,VALID,225.0,VALID,0.94,
2017-08-25, 09:44:07,VALID,917.586,VALID,0.0,VALID,58.982,VALID,582.054,VALID,25.825,VALID,249.0,VALID,0.909,
2017-08-25, 09:45:07,VALID,917.589,VALID,0.0,VALID,58.515,VALID,601.021,VALID,25.673,VALID,237.0,VALID,1.062,
2017-08-25, 09:46:07,VALID,917.583,VALID,0.0,VALID,57.83,VALID,609.345,VALID,25.597,VALID,243.0,VALID,0.923,
2017-08-25, 09:47:07,VALID,917.579,VALID,0.0,VALID,57.999,VALID,620.129,VALID,25.499,VALID,262.0,VALID,0.837,
2017-08-25, 09:48:07,VALID,917.576,VALID,0.0,VALID,57.731,VALID,625.191,VALID,25.448,VALID,265.0,VALID,0.44,
2017-08-25, 09:49:07,VALID,917.578,VALID,0.0,VALID,57.802,VALID,623.697,VALID,25.522,VALID,291.0,VALID,0.291,
2017-08-25, 09:50:07,VALID,917.578,VALID,0.0,VALID,58.606,VALID,630.601,VALID,25.654,VALID,254.0,VALID,0.63,
2017-08-25, 09:51:07,VALID,917.587,VALID,0.0,VALID,60.55,VALID,637.755,VALID,25.635,VALID,261.0,VALID,1.062,
2017-08-25, 09:52:07,VALID,917.591,VALID,0.0,VALID,59.36,VALID,632.802,VALID,25.485,VALID,230.0,VALID,0.919,
2017-08-25, 09:53:07,VALID,917.597,VALID,0.0,VALID,58.791,VALID,631.413,VALID,25.467,VALID,234.0,VALID,1.135,
2017-08-25, 09:54:07,VALID,917.593,VALID,0.0,VALID,58.864,VALID,649.341,VALID,25.422,VALID,214.0,VALID,0.89,
2017-08-25, 09:55:07,VALID,917.594,VALID,0.0,VALID,59.65,VALID,648.693,VALID,25.561,VALID,165.0,VALID,0.07,
2017-08-25, 09:56:07,VALID,917.602,VALID,0.0,VALID,60.785,VALID,650.024,VALID,25.849,VALID,207.0,VALID,0.239,
2017-08-25, 09:57:07,VALID,917.602,VALID,0.0,VALID,62.463,VALID,660.341,VALID,26.019,VALID,242.0,VALID,0.373,
2017-08-25, 09:58:07,VALID,917.63,VALID,0.0,VALID,61.114,VALID,679.653,VALID,26.053,VALID,308.0,VALID,0.525,
2017-08-25, 09:59:07,VALID,917.624,VALID,0.0,VALID,60.409,VALID,688.124,VALID,26.057,VALID,276.0,VALID,0.075,
2017-08-25, 10:00:07,VALID,917.637,VALID,0.0,VALID,61.408,VALID,695.747,VALID,26.172,VALID,270.0,VALID,0.491,
2017-08-25, 10:01:07,VALID,917.647,VALID,0.0,VALID,62.914,VALID,707.005,VALID,26.212,VALID,259.0,VALID,0.458,
2017-08-25, 10:02:07,VALID,917.645,VALID,0.0,VALID,60.513,VALID,710.559,VALID,26.121,VALID,252.0,VALID,0.877,
2017-08-25, 10:03:07,VALID,917.651,VALID,0.0,VALID,59.291,VALID,729.064,VALID,25.94,VALID,261.0,VALID,1.124,
2017-08-25, 10:04:07,VALID,917.654,VALID,0.0,VALID,60.0,VALID,733.307,VALID,25.759,VALID,260.0,VALID,1.144,
2017-08-25, 10:05:07,VALID,917.668,VALID,0.0,VALID,58.307,VALID,739.444,VALID,25.568,VALID,263.0,VALID,1.018,
2017-08-25, 10:06:07,VALID,917.676,VALID,0.0,VALID,59.334,VALID,749.391,VALID,25.454,VALID,267.0,VALID,0.356,
2017-08-25, 10:07:07,VALID,917.659,VALID,0.0,VALID,61.178,VALID,773.013,VALID,25.566,VALID,238.0,VALID,0.312,
2017-08-25, 10:08:07,VALID,917.644,VALID,0.0,VALID,62.729,VALID,782.676,VALID,25.906,VALID,278.0,VALID,0.045,
2017-08-25, 10:09:07,VALID,917.634,VALID,0.0,VALID,60.911,VALID,792.23,VALID,26.297,VALID,283.0,VALID,0.601,
2017-08-25, 10:10:07,VALID,917.626,VALID,0.0,VALID,58.084,VALID,787.198,VALID,26.353,VALID,320.0,VALID,0.688,
2017-08-25, 10:11:07,VALID,917.609,VALID,0.0,VALID,57.373,VALID,785.121,VALID,26.42,VALID,277.0,VALID,0.195,
2017-08-25, 10:12:07,VALID,917.607,VALID,0.0,VALID,57.068,VALID,770.44,VALID,26.505,VALID,195.0,VALID,0.198,
2017-08-25, 10:13:07,VALID,917.609,VALID,0.0,VALID,57.167,VALID,741.846,VALID,26.633,VALID,220.0,VALID,0.66,
2017-08-25, 10:14:07,VALID,917.618,VALID,0.0,VALID,57.392,VALID,728.978,VALID,26.697,VALID,280.0,VALID,0.455,
2017-08-25, 10:15:07,VALID,917.633,VALID,0.0,VALID,56.111,VALID,695.951,VALID,26.672,VALID,311.0,VALID,0.764,
2017-08-25, 10:16:07,VALID,917.661,VALID,0.0,VALID,56.725,VALID,698.156,VALID,26.423,VALID,288.0,VALID,0.403,
2017-08-25, 10:17:07,VALID,917.657,VALID,0.0,VALID,57.613,VALID,711.104,VALID,26.295,VALID,268.0,VALID,0.461,
2017-08-25, 10:18:07,VALID,917.672,VALID,0.0,VALID,56.238,VALID,716.514,VALID,26.294,VALID,348.0,VALID,0.661,
2017-08-25, 10:19:07,VALID,917.666,VALID,0.0,VALID,55.956,VALID,736.64,VALID,26.403,VALID,30.0,VALID,1.019,
2017-08-25, 10:20:07,VALID,917.661,VALID,0.0,VALID,56.337,VALID,758.573,VALID,26.233,VALID,34.0,VALID,0.993,
2017-08-25, 10:21:07,VALID,917.675,VALID,0.0,VALID,56.082,VALID,777.494,VALID,26.115,VALID,19.0,VALID,0.881,
2017-08-25, 10:22:07,VALID,917.687,VALID,0.0,VALID,55.599,VALID,767.436,VALID,26.193,VALID,62.0,VALID,0.352,
2017-08-25, 10:23:07,VALID,917.681,VALID,0.0,VALID,55.934,VALID,751.625,VALID,26.236,VALID,44.0,VALID,0.355,
2017-08-25, 10:24:07,VALID,917.668,VALID,0.0,VALID,55.712,VALID,752.073,VALID,26.349,VALID,334.0,VALID,0.0,
2017-08-25, 10:25:07,VALID,917.647,VALID,0.0,VALID,55.87,VALID,760.295,VALID,26.643,VALID,56.0,VALID,0.459,
2017-08-25, 10:26:07,VALID,917.632,VALID,0.0,VALID,52.302,VALID,731.276,VALID,26.692,VALID,106.0,VALID,1.004,
2017-08-25, 10:27:07,VALID,917.635,VALID,0.0,VALID,54.556,VALID,728.076,VALID,26.497,VALID,96.0,VALID,1.008,
2017-08-25, 10:28:07,VALID,917.637,VALID,0.0,VALID,52.953,VALID,705.268,VALID,26.515,VALID,48.0,VALID,0.244,
2017-08-25, 10:29:07,VALID,917.637,VALID,0.0,VALID,54.517,VALID,697.419,VALID,26.859,VALID,48.0,VALID,0.665,
2017-08-25, 10:30:07,VALID,917.628,VALID,0.0,VALID,54.706,VALID,660.314,VALID,27.282,VALID,355.0,VALID,0.777,
2017-08-25, 10:31:07,VALID,917.624,VALID,0.0,VALID,54.675,VALID,641.155,VALID,27.322,VALID,297.0,VALID,0.229,
2017-08-25, 10:32:07,VALID,917.622,VALID,0.0,VALID,54.956,VALID,627.914,VALID,27.181,VALID,326.0,VALID,0.211,
2017-08-25, 10:33:07,VALID,917.607,VALID,0.0,VALID,54.097,VALID,619.884,VALID,27.244,VALID,353.0,VALID,0.64,
2017-08-25, 10:34:07,VALID,917.591,VALID,0.0,VALID,53.316,VALID,620.298,VALID,27.182,VALID,52.0,VALID,1.145,
2017-08-25, 10:35:07,VALID,917.579,VALID,0.0,VALID,52.162,VALID,614.893,VALID,26.78,VALID,29.0,VALID,0.748,